C/2023 F3 ( ATLAS )

Japanese version
Home page
Updated on September 2, 2023

---------------------------------------------------------------------

* Profile

Discovery Date March 28, 2023
Magnitude 18.8 mag
Discoverer Asteroid Terrestrial-Impact Last Alert System (ATLAS) search program

* Pictures

* Orbital Elements

Epoch 2023 Sept. 13.0 TT = JDT 2460200.5
T 2025 Feb. 2.88530 TT                                  Rudenko
q   5.1897452            (2000.0)            P               Q
z  -0.0008066      Peri.  265.54927     -0.75315556     -0.39251331
 +/-0.0000281      Node   109.44388     -0.09742142     +0.86019010
e   1.0041862      Incl.  145.95528     -0.65058878     +0.32558608
>From 134 observations 2023 Mar. 28-Aug. 27, mean residual 0".5.

* Finding Charts

* Magnitudes Graph

        m1 = 5.0 + 5 log d + 10.0 log r

---------------------------------------------------------------------

The orbital elements are published on M.P.E.C. 2023-Q150.
The charts are made with StellaNavigator Ver.11 (AstroArts).
The magnitudes graphs are made with Comet for Windows.

---------------------------------------------------------------------

Copyright(C) Seiichi Yoshida (comet@aerith.net). All rights reserved.